Tracking 30995 objects as of 5-Jul-2025
HD Live streaming from Space Station
objects crossing your sky now

USA 362

Track USA 362 now!
10-day predictions


NORAD ID: 59822
Int'l Code: 2024-096J
Perigee: 582.8 km
Apogee: 585.6 km
Inclination: 70.0 °
Period: 96.2 minutes
Semi major axis: 6955 km
RCS: Unknown
Launch date: May 22, 2024
Source: United States (US)
Launch site: AIR FORCE WESTERN TEST RANGE (AFWTR)
Your satellite tracking list
COSMOS 944
Track 1 satellite(s)




NASA's NSSDC Master Catalog

Two Line Element Set (TLE):
1 59822U 24096J   25180.98088512 0.00000000  00000-0  00000-0 0    07
2 59822  69.9910 132.1298 0002000  68.2409 291.7591 14.96714008    03
Source of the keplerian elements: McCants